Regional Weather Roundup
Issued by NWS New Orleans/Baton Rouge, LA

Home | Current Version | Previous Version | Text Only | Print | Product List | Glossary On
Versions: 1 2 3 4 5 6 7 8 9 10 11 12 13 14 15 16 17 18 19 20 21 22 23 24 25 26 27 28 29
000
ASUS44 KLIX 251011
RWRLIX
NEW ORLEANS REGIONAL WEATHER ROUNDUP
NATIONAL WEATHER SERVICE NEW ORLEANS LA
500 AM CDT MON JUL 25 2016

NOTE: "FAIR" INDICATES FEW OR NO CLOUDS BELOW 12,000 FEET WITH NO
      SIGNIFICANT WEATHER AND/OR OBSTRUCTIONS TO VISIBILITY.
      SKY/WX - SKY CONDITION AND SIGNIFICANT WEATHER.
      TMP - AIR TEMPERATURE.     DP    - DEWPOINT TEMPERATURE.
      RH  - RELATIVE HUMIDITY.   PRES  - PRESSURE.
      HI  - HEAT INDEX.          WCI   - WIND CHILL INDEX.

*  THESE STATIONS ARE NOT NWS OR FAA STATIONS AND ARE NOT UNDER
   NWS QUALITY CONTROL.

LAZ038-040-048-061>063-065>067-069-251100-
SOUTHEAST LOUISIANA

CITY           SKY/WX    TMP DP  RH WIND       PRES   REMARKS
N.O. AUDUBON     N/A     81  78  90 MISG        N/A
N.O. INTL ARPT CLOUDY    81  77  88 CALM      29.93S
N.O. LAKEFRONT PTCLDY    82  75  79 E3        29.94S
N.O. DOWNTOWN*   N/A     82  76  81 CALM      29.95R
RESERVE*         N/A     77  75  93 CALM      29.94S
SLIDELL        CLEAR     75  74  96 CALM      29.94R
BATON ROUGE    CLOUDY    76  73  91 NE3       29.95S
BOOTHVILLE     CLOUDY    80  76  87 CALM      29.94R
BELLE CHASSE   MOCLDY    76  76 100 NE3       29.93S
BOGALUSA*        N/A     76  72  89 CALM      29.98R
GALLIANO*      PTSUNNY   67  67 100 CALM      29.93S
NEW ROADS*       N/A     75  74  99 CALM      29.95S FOG
GONZALES*        N/A     75  75 100 CALM      29.93S
HAMMOND*       PTCLDY    73  70  88 CALM      29.95R FOG
HOUMA*         CLOUDY    76  75  98 CALM      29.93S
PORT FOURCHON* SUNNY     82  75  78 CALM      29.93S

$$

MSZ070-080>082-251100-
SOUTHERN MISSISSIPPI

CITY           SKY/WX    TMP DP  RH WIND       PRES   REMARKS
MCCOMB         CLEAR     74  72  93 CALM      29.97S
GULFPORT       MOCLDY    78  76  93 N5        29.94R
BILOXI         MOCLDY    78  78 100 NE9       29.95R
PASCAGOULA     LGT RAIN  77  77 100 CALM      29.96R

$$

COASTAL OBSERVATIONS
LAKE AND NEARSHORE STATIONS

STATION/POSITION TIME  TEMP    WIND        PRES    WAVE
                       AIR SEA DIR/SP/G            HT/PER
                 (UTC) (F)     (DEG/KT/KT) (MB)    (FT/S)
PASCAGOULA       0900   79     350/  5/  6 1013.1
WAVELAND YACHT   0900   79 87  320/  5/  9 1013.6
GRAND ISLE       0900   82 87   CALM  /  1 1013.3
SOUTHWEST PASS   0900          190/  1/  2   N/A
NEW CANAL        0900   80 88   CALM  /  1 1012.9
SHELL BEACH      0900   82 87  260/  3/  5 1013.5

OFFSHORE STATIONS

STATION/POSITION TIME  TEMP    WIND        PRES    WAVE
                       AIR SEA DIR/SP/G            HT/PER
                 (UTC) (F)     (DEG/KT/KT) (MB)    (FT/S)
64 S DAUPHIN ISL 0900   84 87  190/  4/  6 1013.3

$$





USA.gov is the U.S. government's official web portal to all federal, state and local government web resources and services.